SCP
0 0 0 0 0 0 0 0 0 0 0 0 0 0 0 0 0 1 1 2 2 1 1 1 1 1 1 1 1 1 1 1 1 1 1 1 1 1 1 1 0 0 1
0 0 0 1 1 1 0 0 0 0 0 0 0 0 0 0 0 0 1 1 2 1 1 1 1 1 1 1 1 1 1 1 1 1 1 1 1 1 1 1 1 0 0
1 1 1 1 1 1 1 1 0 0 0 0 0 0 0 0 0 0 1 1 2 2 1 1 1 0 0 0 1 1 1 1 1 1 1 0 1 1 1 1 1 1 1
1 1 1 1 1 1 1 1 0 0 0 0 0 0 0 0 0 0 0 1 1 1 1 1 1 1 0 0 0 1 1 1 1 1 1 1 1 1 1 1 1 1 1
1 1 1 1 1 1 0 0 0 0 0 0 0 0 0 0 0 0 0 0 1 1 1 1 1 1 0 0 1 1 1 1 1 1 1 1 1 1 1 1 1 1 1
1 1 1 1 1 0 0 0 0 0 0 0 0 0 0 0 0 0 0 0 0 1 1 1 1 1 1 1 1 1 1 1 1 1 1 1 1 1 1 1 1 1 1
0 0 1 1 1 0 0 0 0 0 0 0 0 0 0 0 0 0 0 0 0 0 1 1 1 1 1 1 1 1 1 1 1 1 1 1 1 1 1 1 1 1 1
0 0 1 1 1 0 0 0 0 0 0 0 0 0 0 0 0 0 0 0 0 0 1 1 2 2 1 1 1 1 1 1 1 1 1 1 1 1 1 1 1 1 1
0 0 1 1 1 1 0 0 0 0 0 0 0 0 0 0 0 0 0 0 0 1 1 2 2 2 1 1 1 1 1 1 1 1 1 1 1 1 1 1 1 1 1
0 0 0 0 1 1 0 0 0 0 0 0 0 0 0 0 0 0 0 0 0 1 2 2 2 2 1 1 1 1 1 1 1 1 1 1 1 1 1 1 1 1 1
0 0 0 0 0 0 0 0 0 0 0 0 0 0 0 0 0 0 0 0 0 1 1 2 1 1 0 0 0 0 1 1 1 1 1 1 1 1 1 1 1 1 1
0 0 0 0 0 0 0 0 0 0 0 0 0 0 0 0 0 0 0 0 0 0 1 1 1 0 0 0 0 0 0 0 0 1 1 1 1 1 1 1 1 1 1
1 0 0 0 0 0 0 0 0 0 0 0 0 0 0 0 0 0 0 0 0 0 0 0 0 0 0 0 0 0 0 0 0 0 1 1 1 1 1 1 1 1 1
1 1 1 0 0 0 0 0 0 0 0 0 0 0 0 0 0 0 0 0 0 0 0 0 0 0 0 0 0 0 0 0 0 0 1 1 1 1 1 1 1 1 1
1 1 1 1 0 0 0 0 0 0 0 0 0 0 0 0 0 0 0 0 0 0 0 0 0 0 0 0 0 0 0 0 0 0 1 1 1 0 0 1 1 1 1
1 1 1 1 1 1 0 0 0 0 0 0 0 0 0 0 0 0 0 0 0 0 0 0 0 0 0 0 0 0 0 0 0 0 1 1 1 0 0 1 1 1 1
1 2 1 1 1 1 1 0 0 0 0 0 0 0 0 0 0 0 0 0 0 0 0 0 0 0 0 0 0 0 0 0 0 0 1 1 1 0 1 1 1 1 1
1 2 1 1 1 1 1 0 0 0 0 0 0 0 0 0 0 0 0 0 0 0 0 0 0 0 0 0 0 0 0 0 0 1 1 1 1 0 1 0 0 0 0
2 2 2 2 2 2 1 1 1 1 0 0 0 0 0 0 0 0 0 0 0 0 0 0 0 0 0 0 0 0 0 1 1 1 1 1 0 0 0 0 0 0 0
2 2 2 2 2 2 2 1 1 1 1 0 0 0 0 0 0 0 0 0 0 0 0 0 0 0 0 0 0 0 1 1 1 1 1 1 0 0 0 0 0 0 0
2 2 2 2 3 3 2 1 2 1 1 1 0 0 0 0 0 0 0 0 0 0 0 0 0 0 0 0 0 0 1 1 2 1 1 1 0 0 0 0 0 0 0
2 2 2 3 3 3 2 1 2 2 1 1 0 0 0 0 0 0 0 0 0 0 0 0 0 0 0 0 0 1 1 1 2 1 1 0 0 0 0 0 0 0 0
2 2 2 3 3 3 1 1 1 1 1 1 0 0 0 0 0 0 0 0 0 0 0 0 0 0 0 0 0 1 1 1 1 1 1 0 0 0 0 0 0 0 0
2 2 2 2 3 2 1 1 1 1 1 1 0 0 0 0 0 0 0 0 0 0 0 0 0 0 0 0 0 0 1 1 1 1 0 0 0 0 0 0 0 0 0
2 2 2 2 2 2 1 0 0 1 1 1 1 0 0 0 0 0 0 0 0 0 0 0 0 0 0 0 0 0 1 1 1 0 0 0 0 0 0 0 0 0 0
2 3 2 2 2 2 1 0 0 1 1 1 1 1 0 0 0 0 0 0 0 0 0 0 0 0 0 0 0 0 1 1 0 0 0 0 0 0 0 0 0 0 0
Wind_Speed
1 2 2 2 2 2 2 2 3 4 4 4 4 5 4 3 4 4 3 7 8 7 8 9 9 10 10 10 10 10 9 8 8 8 8 8 8 8 8 7 7 6 6
2 2 3 2 2 2 2 2 3 3 3 3 4 4 3 3 3 4 4 5 7 7 7 8 9 10 11 10 10 10 10 9 9 8 8 8 7 7 7 7 7 7 7
2 2 3 2 2 2 3 3 4 3 3 3 3 3 3 3 2 2 3 3 3 6 8 8 9 9 10 10 10 10 9 9 9 9 9 8 8 8 8 8 8 7 7
3 3 3 2 2 3 3 2 3 3 3 3 2 2 2 2 3 2 2 3 3 3 5 7 7 8 8 8 9 9 9 9 9 9 9 8 8 8 8 8 7 7 7
4 3 2 1 3 3 3 3 3 3 3 3 2 1 1 1 1 1 2 3 3 4 3 5 6 6 6 7 7 8 8 8 9 9 8 8 8 8 8 8 8 7 7
3 3 2 2 3 3 2 2 3 2 1 1 2 2 1 1 1 2 3 3 3 3 3 3 3 3 5 5 6 7 7 7 7 7 7 8 8 8 8 8 7 7 7
3 3 2 2 3 2 1 2 2 2 1 1 2 2 2 1 2 2 2 2 3 2 2 2 2 2 2 4 5 6 6 6 6 6 6 7 7 7 8 8 7 7 7
2 2 2 1 2 1 2 2 2 1 1 2 1 1 1 2 3 1 1 1 1 2 2 2 2 2 3 2 3 5 6 5 6 5 5 6 6 6 6 6 6 6 6
1 1 1 1 1 1 1 1 1 2 1 2 1 1 1 0 2 2 0 1 1 1 1 2 2 3 3 3 3 3 4 4 4 4 4 5 5 5 6 5 5 6 5
1 1 0 1 1 1 1 0 1 1 0 1 1 1 0 1 1 1 2 1 1 1 1 2 3 3 3 3 3 4 4 3 4 4 4 4 4 4 4 5 5 5 5
1 1 1 0 1 1 1 0 1 0 0 0 1 1 1 1 1 1 1 2 1 0 1 1 1 2 2 2 2 3 3 2 3 4 4 4 4 4 3 4 4 4 4
1 2 1 1 1 1 1 1 1 0 1 0 1 0 0 0 1 1 0 1 1 1 0 1 1 1 1 2 2 4 3 2 2 3 4 4 3 4 3 3 3 3 3
1 2 2 2 1 1 1 1 1 1 1 1 1 1 0 1 1 1 1 1 1 1 0 0 1 1 1 2 1 2 2 2 2 3 3 4 4 4 4 3 3 3 3
2 2 2 2 2 2 1 1 1 1 1 1 1 0 0 1 1 1 0 1 1 2 1 1 0 1 1 1 1 1 1 1 1 1 2 3 3 4 4 4 4 3 3
2 3 3 2 2 2 1 1 1 1 1 1 1 1 1 1 0 0 1 1 1 0 2 1 1 0 0 1 1 1 0 1 1 1 1 2 3 3 3 3 4 4 4
2 2 2 2 2 2 2 1 1 1 1 1 1 0 0 0 0 0 0 0 1 2 1 1 1 1 0 0 1 0 1 1 2 1 1 1 2 2 3 3 4 4 4
2 2 2 2 2 2 2 2 2 1 1 1 1 1 1 1 1 1 1 0 1 1 1 2 1 1 1 1 1 1 1 1 1 3 2 1 1 2 2 3 3 3 3
1 2 2 2 2 2 2 3 3 2 2 2 2 2 2 2 2 1 1 1 1 1 2 2 1 1 1 1 1 1 1 1 1 2 3 2 1 1 2 2 2 3 3
2 2 2 2 2 2 2 3 3 3 3 2 2 2 3 2 2 2 2 2 2 2 1 2 2 1 1 1 1 2 2 1 1 2 3 2 1 1 1 1 1 2 2
2 2 2 1 1 2 2 2 2 3 3 3 2 2 2 2 2 2 2 2 2 2 1 1 2 1 2 2 1 1 2 1 1 1 1 1 1 1 0 0 1 1 1
2 2 2 2 2 2 2 2 2 2 2 2 2 2 2 2 1 1 1 1 1 1 1 1 2 1 1 1 1 1 1 1 1 0 0 1 0 0 0 0 0 1 1
2 1 2 2 2 1 1 1 1 2 2 2 2 2 3 3 3 3 2 2 2 2 2 2 2 2 2 2 1 1 1 1 2 1 0 1 0 0 0 1 1 1 2
1 1 2 1 1 1 1 1 2 2 2 2 3 2 3 2 2 2 3 3 3 3 4 3 2 3 2 2 2 2 1 2 2 2 0 2 1 1 1 1 1 2 2
1 2 2 1 1 0 1 1 2 2 3 3 3 3 3 3 2 2 2 2 2 2 3 2 2 3 2 2 2 3 3 2 1 1 0 1 2 1 1 0 2 1 1
2 2 2 2 1 2 2 2 2 2 3 3 3 2 2 2 2 2 2 2 2 2 2 2 3 3 4 4 3 1 1 1 2 2 0 1 2 2 1 1 1 1 2
2 2 2 2 2 2 2 2 2 2 3 3 2 2 1 1 2 1 2 2 2 2 1 2 2 3 3 4 4 3 2 2 2 2 1 1 1 1 2 1 1 1 1
Wind_Direction
62 77 72 70 57 52 41 15 33 42 39 42 50 55 57 70 90 94 91 94 89 81 75 69 60 54 56 59 62 61 58 56 57 60 58 55 53 52 51 49 44 43 44
63 71 71 60 55 40 35 37 48 51 43 42 46 49 47 49 81 102 106 93 89 85 81 73 66 60 60 62 62 59 56 56 55 55 58 54 53 50 47 42 38 40 41
65 66 70 64 62 57 41 35 40 42 50 48 45 42 42 32 49 91 104 110 99 86 82 77 71 65 63 62 59 56 55 59 57 55 55 52 50 47 45 42 39 41 42
61 67 61 48 45 53 50 39 41 41 38 38 33 30 36 27 28 61 97 114 120 112 95 88 79 72 64 59 57 54 53 59 57 56 53 50 47 45 43 40 39 41 41
61 69 68 53 55 55 45 39 45 42 37 29 21 33 30 34 358 26 63 87 102 117 121 113 99 85 72 61 57 52 52 56 54 53 50 47 45 42 41 41 42 42 43
56 62 65 61 65 62 48 56 62 43 38 16 8 16 2 24 29 35 41 51 66 86 101 126 131 105 88 74 64 56 50 49 46 48 48 48 46 42 41 40 43 43 43
65 63 51 51 66 67 53 61 83 60 22 13 29 360 344 6 53 70 61 50 51 66 76 90 114 124 108 84 69 58 48 46 43 42 45 46 44 40 38 38 40 42 42
78 76 73 70 74 65 48 46 56 56 355 1 26 22 359 358 347 38 74 81 59 51 49 55 63 77 102 108 83 62 46 39 39 38 38 38 37 36 35 36 39 38 37
116 119 97 104 123 119 113 95 89 75 3 331 27 61 63 315 313 334 7 87 63 40 54 59 50 55 78 87 88 62 52 40 35 34 33 32 34 33 34 32 36 34 34
122 122 124 128 136 108 108 190 103 107 90 318 327 343 108 135 120 324 325 4 72 71 61 56 58 48 66 78 81 77 72 50 36 26 27 26 26 27 32 32 34 33 33
160 173 210 175 131 136 153 100 59 18 192 225 301 321 330 335 279 148 285 322 340 338 93 77 77 65 73 80 87 78 90 62 35 18 16 12 13 11 18 22 22 25 26
170 196 196 179 175 162 172 169 183 247 314 332 311 296 286 337 305 351 287 301 289 285 93 98 103 95 96 80 69 67 76 62 35 16 6 1 5 4 5 1 1 7 9
185 212 199 188 182 175 182 161 188 202 230 224 265 295 354 316 313 1 44 337 308 291 353 30 113 105 96 101 74 70 84 81 44 16 4 359 356 356 354 350 349 352 356
188 197 199 200 187 184 196 166 179 220 229 201 255 212 195 303 353 20 113 54 338 330 348 297 32 110 86 104 90 108 147 136 80 7 354 350 349 350 349 348 345 340 339
202 190 197 192 194 190 197 183 190 221 231 221 228 226 184 191 145 351 27 128 145 300 302 290 338 292 123 118 153 160 169 153 162 282 340 346 342 343 342 348 347 340 334
212 180 195 196 188 185 193 200 195 225 216 222 213 225 218 204 170 118 119 305 145 172 247 280 272 273 304 168 225 219 185 143 195 213 264 306 325 341 345 349 344 341 335
207 192 203 203 194 193 198 197 203 200 222 228 218 204 231 221 204 222 208 245 270 179 222 283 292 285 327 316 315 287 231 187 204 210 209 261 306 332 338 338 341 337 332
230 209 207 205 208 208 203 201 206 204 215 224 236 224 222 220 221 224 212 220 235 229 201 245 274 288 285 273 270 270 263 221 219 204 206 236 260 303 327 335 343 343 343
258 251 224 209 217 217 212 211 208 200 200 214 228 242 239 215 220 216 216 221 232 246 215 206 246 256 271 270 287 290 273 269 252 203 201 227 231 264 325 348 347 353 349
238 256 248 216 223 229 225 230 226 211 205 212 218 245 256 223 222 221 225 225 231 239 238 213 236 249 259 263 244 269 291 289 290 282 348 262 234 230 259 42 19 1 345
231 229 238 227 228 231 239 237 240 230 220 232 235 237 258 258 242 251 252 228 229 227 228 223 233 256 263 263 252 255 263 277 295 291 344 293 233 173 244 278 284 311 318
236 233 238 228 231 263 292 282 280 240 229 230 240 238 240 242 252 250 260 256 231 222 224 218 225 231 243 246 258 267 267 287 296 295 36 293 125 175 230 194 219 238 258
249 244 248 241 227 225 256 268 286 262 247 237 240 239 253 250 244 231 245 244 245 244 227 220 234 237 235 248 247 264 259 245 252 249 140 286 291 276 270 245 209 210 241
237 250 251 236 213 273 300 283 271 258 257 246 238 228 230 230 235 227 226 232 233 247 239 229 225 242 245 238 235 242 240 259 280 299 121 270 288 282 304 285 223 212 259
237 230 235 216 207 231 242 249 248 237 246 252 247 248 262 248 249 238 229 228 233 268 285 259 256 261 270 268 260 276 285 259 280 268 254 240 275 296 293 270 264 246 255
243 236 230 224 214 220 227 222 229 239 245 248 240 219 231 257 254 230 224 217 220 245 251 285 292 288 271 262 253 225 213 224 255 267 237 196 256 286 297 283 273 282 286